{"data":{"norad_id":65015,"intl_designator":"2025-161A","name":"STARLINK-34617","alt_names":[],"object_type":"PAYLOAD","status":"ACTIVE","operator":null,"country":"US","launch_date":"2025-07-30","launch_site_code":"AFWTR","launch_vehicle":null,"mission":null,"orbit_class":"UNKNOWN","rcs_meters":null,"size_class":null,"mass_kg":null,"dimensions":null,"purposes":["comms"],"wikipedia_slug":null,"has_3d_model":false,"image_url":null,"decayed_at":null,"tle_current":{"epoch":"2026-05-24T19:53:40.123104Z","epoch_age_seconds":89901,"freshness":"FRESH","line1":"1 65015U 25161A   26144.82893661  .00020859  00000+0  71439-3 0  9992","line2":"2 65015  53.1604 300.7939 0001505  59.7592 300.3558 15.30200749 45887","mean_motion":15.30200749,"eccentricity":0.0001505,"inclination_deg":53.1604,"raan_deg":300.7939,"arg_perigee_deg":59.7592,"mean_anomaly_deg":300.3558,"bstar":0.00071439,"rev_number":4588,"period_min":94.105299643923,"perigee_km":474.18140389137,"apogee_km":476.24426219112,"semimajor_km":6853.3498330412,"source":"CELESTRAK","updated_at":"2026-05-25T13:38:20.636787Z"}}}